| time (UTC) | temp F | wind direction | speed knots | gust knots | rain 1hr in | rain 24hr in | rain mn in | humidity % | barometer mb |
| 20260902113018 | 63 | 250 | 4.3 | 8.7 | 0.00 | 0.02 | 0.01 | 88 | 1012.9 |
| 20260902112038 | 62 | 264 | 3.5 | 7.8 | 0.00 | 0.02 | 0.01 | 91 | 1013.0 |
| 20260902111018 | 61 | 265 | 2.6 | 7.8 | 0.01 | 0.02 | 0.01 | 92 | 1013.0 |
| 20260902110018 | 61 | 260 | 2.6 | 7.0 | 0.01 | 0.02 | 0.01 | 90 | 1013.0 |
| 20260902105019 | 62 | 256 | 4.3 | 8.7 | 0.01 | 0.02 | 0.01 | 88 | 1013.1 |
| 20260902104020 | 64 | 225 | 2.6 | 9.6 | 0.01 | 0.02 | 0.01 | 86 | 1013.0 |
| 20260902103038 | 64 | 203 | 3.5 | 8.7 | 0.01 | 0.02 | 0.01 | 83 | 1012.9 |
| 20260902102018 | 64 | 213 | 4.3 | 7.0 | 0.01 | 0.02 | 0.01 | 84 | 1012.9 |
| 20260902101058 | 65 | 199 | 5.2 | 9.6 | 0.00 | 0.01 | 0.00 | 82 | 1013.0 |
| 20260902100039 | 64 | 198 | 4.3 | 12.2 | 0.00 | 0.01 | 0.00 | 86 | 1013.0 |
| 20260902095058 | 64 | 212 | 2.6 | 7.8 | 0.00 | 0.01 | 0.00 | 85 | 1013.0 |
| 20260902094038 | 64 | 211 | 4.3 | 10.4 | 0.00 | 0.01 | 0.00 | 84 | 1013.1 |
| 20260902093018 | 64 | 224 | 3.5 | 11.3 | 0.00 | 0.01 | 0.00 | 83 | 1013.2 |
| 20260902092018 | 64 | 235 | 4.3 | 7.0 | 0.00 | 0.01 | 0.00 | 83 | 1013.1 |
| 20260902091018 | 64 | 238 | 3.5 | 9.6 | 0.00 | 0.01 | 0.00 | 84 | 1013.1 |
| 20260902090020 | 64 | 238 | 3.5 | 9.6 | 0.00 | 0.01 | 0.00 | 85 | 1013.1 |
| 20260902085040 | 64 | 214 | 3.5 | 7.8 | 0.00 | 0.01 | 0.00 | 87 | 1013.0 |
| 20260902084037 | 64 | 204 | 3.5 | 7.0 | 0.00 | 0.01 | 0.00 | 87 | 1013.0 |
| 20260902083018 | 63 | 217 | 2.6 | 6.1 | 0.00 | 0.01 | 0.00 | 89 | 1013.1 |
| 20260902082017 | 62 | 225 | 1.7 | 4.3 | 0.00 | 0.01 | 0.00 | 89 | 1013.0 |
| 20260902081016 | 62 | 238 | 2.6 | 6.1 | 0.00 | 0.01 | 0.00 | 88 | 1013.0 |
| 20260902080018 | 62 | 237 | 2.6 | 6.1 | 0.00 | 0.01 | 0.00 | 88 | 1013.0 |
| 20260902075018 | 62 | 246 | 2.6 | 7.0 | 0.00 | 0.01 | 0.00 | 89 | 1013.0 |
| 20260902074038 | 62 | 255 | 2.6 | 6.1 | 0.00 | 0.01 | 0.00 | 90 | 1013.0 |
| 20260902073016 | 61 | 230 | 2.6 | 6.1 | 0.00 | 0.01 | 0.00 | 91 | 1012.9 |
| 20260902072017 | 60 | 231 | 1.7 | 5.2 | 0.00 | 0.01 | 0.00 | 92 | 1012.9 |
| 20260902071020 | 60 | 228 | 0.9 | 3.5 | 0.00 | 0.01 | 0.00 | 92 | 1012.8 |
| 20260902070017 | 60 | 231 | 0.9 | 3.5 | 0.00 | 0.01 | 0.00 | 92 | 1012.8 |
| 20260902065018 | 59 | 257 | 1.7 | 7.0 | 0.00 | 0.01 | 0.00 | 92 | 1012.7 |
| 20260902064058 | 59 | 238 | 1.7 | 7.0 | 0.00 | 0.01 | 0.00 | 93 | 1012.7 |
| 20260902063017 | 59 | 240 | 0.9 | 5.2 | 0.00 | 0.01 | 0.00 | 93 | 1012.7 |
| 20260902062018 | 59 | 244 | 1.7 | 8.7 | 0.00 | 0.01 | 0.00 | 93 | 1012.8 |
| 20260902061018 | 59 | 249 | 0.9 | 3.5 | 0.00 | 0.01 | 0.00 | 94 | 1012.6 |
| 20260902060017 | 59 | 252 | 2.6 | 7.0 | 0.00 | 0.01 | 0.00 | 94 | 1012.7 |
| 20260902055017 | 60 | 208 | 1.7 | 4.3 | 0.00 | 0.01 | 0.00 | 94 | 1012.7 |
| 20260902054017 | 60 | 230 | 0.9 | 4.3 | 0.00 | 0.01 | 0.00 | 94 | 1012.8 |
| 20260902053017 | 59 | 197 | 1.7 | 5.2 | 0.00 | 0.01 | 0.00 | 94 | 1012.6 |
| 20260902052017 | 59 | 205 | 1.7 | 4.3 | 0.00 | 0.01 | 0.00 | 94 | 1012.5 |
| 20260902051017 | 58 | 209 | 1.7 | 4.3 | 0.00 | 0.01 | 0.00 | 94 | 1012.5 |
| 20260902050018 | 58 | 206 | 0.9 | 4.3 | 0.00 | 0.01 | 0.00 | 94 | 1012.5 |
| 20260902045017 | 58 | 201 | 1.7 | 5.2 | 0.00 | 0.01 | 0.00 | 94 | 1012.5 |
| 20260902044018 | 58 | 198 | 1.7 | 4.3 | 0.00 | 0.01 | 0.00 | 94 | 1012.5 |
| 20260902043037 | 58 | 194 | 2.6 | 5.2 | 0.00 | 0.01 | 0.00 | 94 | 1012.4 |
| 20260902042016 | 58 | 200 | 2.6 | 6.1 | 0.00 | 0.01 | 0.00 | 94 | 1012.3 |
| 20260902041017 | 58 | 198 | 3.5 | 7.0 | 0.00 | 0.01 | 0.00 | 94 | 1012.4 |
| 20260902040017 | 58 | 200 | 2.6 | 5.2 | 0.00 | 0.01 | 0.00 | 94 | 1012.4 |
| 20260902035017 | 58 | 202 | 2.6 | 6.1 | 0.00 | 0.01 | 0.00 | 94 | 1012.5 |
| 20260902034018 | 58 | 199 | 3.5 | 7.8 | 0.00 | 0.01 | 0.00 | 94 | 1012.5 |
| 20260902033017 | 58 | 202 | 2.6 | 7.0 | 0.00 | 0.01 | 0.00 | 93 | 1012.5 |
| 20260902032016 | 58 | 198 | 2.6 | 5.2 | 0.00 | 0.01 | 0.00 | 93 | 1012.5 |
| 20260902031017 | 58 | 199 | 2.6 | 5.2 | 0.00 | 0.01 | 0.00 | 93 | 1012.6 |
| 20260902030017 | 58 | 200 | 2.6 | 7.0 | 0.00 | 0.01 | 0.00 | 93 | 1012.6 |
| 20260902025017 | 58 | 194 | 1.7 | 5.2 | 0.00 | 0.01 | 0.00 | 93 | 1012.6 |
| 20260902024017 | 58 | 200 | 2.6 | 6.1 | 0.00 | 0.01 | 0.00 | 93 | 1012.6 |
| 20260902023017 | 58 | 202 | 1.7 | 6.1 | 0.00 | 0.01 | 0.00 | 93 | 1012.8 |
| 20260902022016 | 58 | 194 | 2.6 | 5.2 | 0.00 | 0.01 | 0.00 | 93 | 1012.7 |
| 20260902021017 | 58 | 210 | 2.6 | 7.0 | 0.00 | 0.01 | 0.00 | 93 | 1012.8 |
| 20260902020017 | 58 | 221 | 2.6 | 9.6 | 0.00 | 0.01 | 0.00 | 93 | 1012.7 |
| 20260902015017 | 57 | 201 | 3.5 | 8.7 | 0.00 | 0.01 | 0.00 | 92 | 1012.7 |
| 20260902014017 | 57 | 200 | 2.6 | 7.8 | 0.00 | 0.01 | 0.00 | 92 | 1012.7 |
| 20260902013016 | 57 | 203 | 3.5 | 7.0 | 0.00 | 0.01 | 0.00 | 91 | 1012.7 |
| 20260902012017 | 57 | 202 | 2.6 | 7.0 | 0.00 | 0.01 | 0.00 | 91 | 1012.8 |
| 20260902011017 | 57 | 203 | 3.5 | 5.2 | 0.00 | 0.01 | 0.00 | 91 | 1012.9 |
| 20260902010137 | 56 | 200 | 4.3 | 7.8 | 0.00 | 0.01 | 0.00 | 91 | 1013.0 |
| 20260902005017 | 56 | 208 | 3.5 | 6.1 | 0.00 | 0.01 | 0.00 | 91 | 1013.0 |
| 20260902004017 | 56 | 207 | 3.5 | 7.0 | 0.00 | 0.01 | 0.00 | 91 | 1013.1 |
| 20260902003017 | 56 | 199 | 3.5 | 7.0 | 0.00 | 0.01 | 0.00 | 91 | 1013.2 |
| 20260902002017 | 55 | 205 | 2.6 | 4.3 | 0.00 | 0.01 | 0.00 | 91 | 1013.2 |
| 20260902001017 | 55 | 210 | 1.7 | 4.3 | 0.00 | 0.01 | 0.00 | 91 | 1013.3 |
| 20260902000017 | 55 | 203 | 2.6 | 5.2 | 0.00 | 0.01 | 0.00 | 91 | 1013.4 |
| 20260901235017 | 55 | 213 | 2.6 | 5.2 | 0.00 | 0.01 | 0.00 | 91 | 1013.4 |
| 20260901234017 | 55 | 208 | 2.6 | 5.2 | 0.00 | 0.01 | 0.00 | 91 | 1013.4 |
| 20260901233017 | 55 | 211 | 1.7 | 6.1 | 0.00 | 0.01 | 0.00 | 90 | 1013.5 |
| 20260901232057 | 55 | 201 | 0.9 | 4.3 | 0.00 | 0.01 | 0.00 | 90 | 1013.5 |
| 20260901231017 | 54 | 209 | 2.6 | 5.2 | 0.00 | 0.01 | 0.00 | 90 | 1013.6 |
| 20260901230017 | 54 | 216 | 1.7 | 4.3 | 0.00 | 0.01 | 0.00 | 89 | 1013.5 |
| 20260901225037 | 54 | 213 | 1.7 | 3.5 | 0.00 | 0.01 | 0.00 | 89 | 1013.6 |
| 20260901224017 | 55 | 213 | 1.7 | 4.3 | 0.00 | 0.01 | 0.00 | 88 | 1013.7 |
| 20260901223037 | 55 | 213 | 0.9 | 2.6 | 0.00 | 0.01 | 0.00 | 87 | 1013.7 |
| 20260901222017 | 55 | 206 | 1.7 | 4.3 | 0.00 | 0.01 | 0.00 | 87 | 1013.8 |
| 20260901221017 | 55 | 209 | 1.7 | 5.2 | 0.00 | 0.01 | 0.00 | 87 | 1013.9 |
| 20260901220016 | 56 | 217 | 0.9 | 4.3 | 0.00 | 0.01 | 0.00 | 87 | 1013.9 |
| 20260901215016 | 56 | 219 | 1.7 | 3.5 | 0.00 | 0.01 | 0.01 | 86 | 1013.9 |
| 20260901214017 | 56 | 194 | 0.9 | 4.3 | 0.00 | 0.01 | 0.01 | 86 | 1013.9 |
| 20260901213016 | 56 | 241 | 1.7 | 3.5 | 0.00 | 0.01 | 0.01 | 85 | 1014.0 |
| 20260901212037 | 56 | 243 | 0.9 | 2.6 | 0.00 | 0.01 | 0.01 | 85 | 1014.0 |
| 20260901211017 | 57 | 245 | 0.9 | 2.6 | 0.00 | 0.01 | 0.01 | 84 | 1014.0 |
| 20260901210017 | 57 | 231 | 1.7 | 4.3 | 0.00 | 0.01 | 0.01 | 83 | 1014.0 |
| 20260901205017 | 58 | 254 | 1.7 | 5.2 | 0.00 | 0.02 | 0.01 | 82 | 1014.1 |
| 20260901204017 | 58 | 260 | 2.6 | 7.0 | 0.00 | 0.02 | 0.01 | 81 | 1014.1 |
| 20260901203018 | 58 | 248 | 4.3 | 8.7 | 0.00 | 0.02 | 0.01 | 81 | 1014.1 |
| 20260901202017 | 59 | 249 | 3.5 | 8.7 | 0.00 | 0.02 | 0.01 | 80 | 1014.0 |
| 20260901201016 | 59 | 253 | 4.3 | 10.4 | 0.00 | 0.02 | 0.01 | 80 | 1014.0 |
| 20260901200039 | 60 | 254 | 5.2 | 11.3 | 0.00 | 0.02 | 0.01 | 79 | 1013.8 |
| 20260901195017 | 60 | 254 | 5.2 | 10.4 | 0.00 | 0.02 | 0.01 | 80 | 1013.8 |
| 20260901194016 | 60 | 258 | 5.2 | 9.6 | 0.00 | 0.02 | 0.01 | 80 | 1013.8 |
| 20260901193037 | 61 | 252 | 3.5 | 7.0 | 0.00 | 0.02 | 0.01 | 80 | 1013.7 |
| 20260901192017 | 61 | 253 | 5.2 | 10.4 | 0.00 | 0.02 | 0.01 | 80 | 1013.7 |
| 20260901191016 | 61 | 246 | 4.3 | 9.6 | 0.00 | 0.02 | 0.01 | 81 | 1013.7 |
| 20260901190016 | 61 | 249 | 4.3 | 9.6 | 0.00 | 0.02 | 0.01 | 81 | 1013.6 |
| 20260901185017 | 61 | 250 | 4.3 | 9.6 | 0.00 | 0.02 | 0.01 | 81 | 1013.6 |
| 20260901184016 | 61 | 249 | 4.3 | 9.6 | 0.00 | 0.02 | 0.01 | 80 | 1013.6 |
| 20260901183016 | 61 | 252 | 4.3 | 7.8 | 0.00 | 0.02 | 0.01 | 80 | 1013.5 |
| 20260901182019 | 62 | 253 | 4.3 | 10.4 | 0.00 | 0.02 | 0.01 | 80 | 1013.5 |
| 20260901181016 | 62 | 255 | 4.3 | 10.4 | 0.01 | 0.02 | 0.01 | 79 | 1013.3 |
| 20260901180016 | 62 | 263 | 3.5 | 8.7 | 0.01 | 0.02 | 0.01 | 79 | 1013.1 |
| 20260901175036 | 62 | 263 | 3.5 | 7.8 | 0.01 | 0.02 | 0.01 | 78 | 1013.1 |
| 20260901174036 | 63 | 255 | 3.5 | 9.6 | 0.01 | 0.02 | 0.01 | 78 | 1013.1 |
| 20260901173016 | 63 | 255 | 5.2 | 10.4 | 0.01 | 0.02 | 0.01 | 77 | 1013.2 |
| 20260901172016 | 63 | 258 | 5.2 | 13.9 | 0.01 | 0.02 | 0.01 | 75 | 1013.1 |
| 20260901171037 | 64 | 259 | 5.2 | 9.6 | 0.00 | 0.01 | 0.00 | 75 | 1013.0 |
| 20260901170016 | 64 | 252 | 3.5 | 12.2 | 0.00 | 0.01 | 0.00 | 75 | 1013.0 |
| 20260901165016 | 65 | 261 | 6.1 | 10.4 | 0.00 | 0.01 | 0.00 | 75 | 1012.9 |
| 20260901164016 | 65 | 261 | 5.2 | 12.2 | 0.00 | 0.01 | 0.00 | 75 | 1012.9 |
| 20260901163016 | 64 | 259 | 4.3 | 13.0 | 0.00 | 0.01 | 0.00 | 75 | 1012.8 |
| 20260901162016 | 64 | 258 | 5.2 | 9.6 | 0.00 | 0.01 | 0.00 | 74 | 1012.8 |
| 20260901161016 | 64 | 250 | 5.2 | 12.2 | 0.00 | 0.01 | 0.00 | 74 | 1012.8 |
| 20260901160016 | 64 | 266 | 5.2 | 13.9 | 0.00 | 0.01 | 0.00 | 74 | 1012.7 |
| 20260901155016 | 65 | 264 | 5.2 | 11.3 | 0.00 | 0.01 | 0.00 | 73 | 1012.7 |
| 20260901154036 | 65 | 263 | 6.1 | 10.4 | 0.00 | 0.01 | 0.00 | 74 | 1012.6 |
| 20260901153016 | 65 | 259 | 5.2 | 12.2 | 0.00 | 0.01 | 0.00 | 72 | 1012.6 |
| 20260901152036 | 65 | 256 | 7.0 | 13.0 | 0.00 | 0.01 | 0.00 | 71 | 1012.5 |
| 20260901151016 | 65 | 255 | 4.3 | 11.3 | 0.00 | 0.01 | 0.00 | 71 | 1012.5 |
| 20260901150016 | 66 | 258 | 4.3 | 11.3 | 0.00 | 0.01 | 0.00 | 70 | 1012.5 |
| 20260901145016 | 66 | 252 | 7.0 | 13.0 | 0.00 | 0.01 | 0.00 | 69 | 1012.4 |
| 20260901144016 | 66 | 253 | 5.2 | 11.3 | 0.00 | 0.01 | 0.00 | 69 | 1012.4 |
| 20260901143016 | 66 | 257 | 5.2 | 12.2 | 0.00 | 0.01 | 0.00 | 70 | 1012.4 |
| 20260901142016 | 65 | 260 | 6.1 | 12.2 | 0.00 | 0.01 | 0.00 | 69 | 1012.5 |
| 20260901141016 | 66 | 265 | 5.2 | 10.4 | 0.00 | 0.01 | 0.00 | 68 | 1012.4 |
| 20260901140016 | 66 | 260 | 5.2 | 13.0 | 0.00 | 0.01 | 0.00 | 70 | 1012.5 |
| 20260901135036 | 66 | 259 | 5.2 | 12.2 | 0.00 | 0.01 | 0.00 | 70 | 1012.5 |
| 20260901134016 | 66 | 261 | 5.2 | 10.4 | 0.00 | 0.01 | 0.00 | 68 | 1012.4 |
| 20260901133016 | 68 | 261 | 5.2 | 11.3 | 0.00 | 0.01 | 0.00 | 65 | 1012.3 |
| 20260901131016 | 67 | 256 | 4.3 | 8.7 | 0.00 | 0.01 | 0.00 | 68 | 1012.2 |
| 20260901130015 | 67 | 263 | 5.2 | 13.0 | 0.00 | 0.01 | 0.00 | 68 | 1012.3 |
| 20260901125016 | 67 | 285 | 5.2 | 10.4 | 0.00 | 0.01 | 0.00 | 67 | 1012.3 |
| 20260901124016 | 66 | 245 | 4.3 | 9.6 | 0.00 | 0.01 | 0.00 | 69 | 1012.2 |
| 20260901123015 | 67 | 301 | 2.6 | 12.2 | 0.00 | 0.01 | 0.00 | 67 | 1012.0 |
| 20260901122018 | 67 | 249 | 6.1 | 13.0 | 0.00 | 0.01 | 0.00 | 69 | 1012.0 |
| 20260901121018 | 67 | 259 | 6.1 | 10.4 | 0.00 | 0.01 | 0.00 | 69 | 1012.1 |
| 20260901120018 | 67 | 253 | 5.2 | 9.6 | 0.00 | 0.01 | 0.00 | 69 | 1012.0 |
| 20260901115036 | 68 | 267 | 5.2 | 10.4 | 0.00 | 0.02 | 0.00 | 68 | 1012.0 |
| 20260901114018 | 68 | 274 | 3.5 | 11.3 | 0.00 | 0.02 | 0.00 | 68 | 1011.9 |